Weather observations for the past three days for
North Wilkesboro, Wilkes County Airport
Imperial (Metric)
Date Time (edt) Wind (mph) Vis. (mi.) Weather Sky Cond. Temperature (ºF) Relative Humidity Wind Chill (°F) Heat Index (°F) Pressure Precipitation (in)
Air Dwpt 6 hour altimeter (in) sea level (mb) 1 hr 3 hr 6 hr
Max. Min.
16 17:30 E 3 10.00 Overcast OVC019 73.4 66.2 78% 30.22 0.0
16 17:10 NE 3 10.00 Overcast OVC019 73.4 66.2 78% 30.23 0.0
16 16:50 E 3 10.00 Overcast OVC021 75.2 68 78% 76 30.23 0.0
16 16:10 Calm 10.00 Overcast OVC019 73.4 66.2 78% 30.24 0.0
16 15:50 NE 3 10.00 Overcast OVC019 73.4 66.2 78% 30.24 0.0
16 15:30 NE 3 10.00 Overcast OVC019 75.2 66.2 74% 77 30.24 0.0
16 15:10 E 3 10.00 Overcast OVC019 73.4 66.2 78% 30.24 0.0
16 14:50 E 3 10.00 Overcast OVC019 73.4 66.2 78% 30.25 0.0
16 14:30 Calm 10.00 Overcast OVC019 73.4 64.4 74% 30.26 0.0
16 14:10 E 3 10.00 Overcast OVC019 75.2 66.2 74% 77 30.26 0.0
16 13:50 Calm 10.00 Overcast OVC019 73.4 64.4 74% 30.27 0.0
16 13:30 Calm 10.00 Overcast OVC017 73.4 64.4 74% 30.27 0.0
16 13:10 Calm 10.00 Overcast OVC017 71.6 64.4 78% 30.27 0.0
16 12:50 E 3 10.00 Overcast OVC017 71.6 64.4 78% 30.27 0.0
16 12:30 NE 3 10.00 Overcast OVC017 71.6 64.4 78% 30.27 0.0
16 12:10 E 5 10.00 Overcast OVC017 71.6 64.4 78% 30.27 0.0
16 11:50 NE 5 10.00 Overcast OVC017 71.6 64.4 78% 30.27 0.0
16 11:30 NE 6 10.00 Overcast OVC019 71.6 64.4 78% 30.28 0.0
16 11:10 E 5 10.00 Overcast OVC019 71.6 62.6 73% 30.28 0.0
16 10:50 NE 5 10.00 Overcast OVC019 69.8 62.6 78% 30.27 0.0
16 10:30 NE 3 10.00 Overcast OVC019 69.8 62.6 78% 30.27 0.0
16 10:10 Calm 10.00 Overcast OVC019 69.8 62.6 78% 30.27 0.0
16 09:50 Calm 10.00 Overcast OVC019 69.8 60.8 73% 30.27 0.0
16 09:30 Calm 10.00 Overcast OVC019 69.8 60.8 73% 30.27 0.0
16 09:10 Calm 10.00 Overcast OVC019 69.8 60.8 73% 30.27 0.0
16 08:50 Calm 10.00 Overcast OVC019 69.8 60.8 73% 30.26 0.0
16 08:30 Calm 10.00 Overcast OVC017 69.8 59 69% 30.25 0.0
16 08:10 Calm 10.00 Overcast OVC017 69.8 59 69% 30.25 0.0
16 07:50 NE 3 10.00 Overcast OVC017 69.8 59 69% 30.24 0.0
16 07:30 E 3 10.00 Overcast OVC019 69.8 59 69% 30.24 0.0
16 07:10 E 3 10.00 Overcast OVC021 69.8 57.2 64% 30.23 0.0
16 06:50 NE 5 10.00 Overcast OVC023 69.8 57.2 64% 30.22 0.0
16 06:30 Calm 10.00 Overcast OVC025 69.8 59 69% 30.22 0.0
16 06:10 Calm 10.00 Overcast BKN025 OVC060 69.8 60.8 73% 30.22 0.0
16 05:50 Calm 10.00 Overcast OVC060 69.8 60.8 73% 30.2 0.0
16 05:30 NE 5 10.00 Overcast OVC060 69.8 59 69% 30.2 0.0
16 05:10 N 5 10.00 Overcast OVC060 69.8 60.8 73% 30.2 0.0
16 04:50 NE 5 10.00 Overcast OVC060 69.8 60.8 73% 30.19 0.0
16 04:30 N 5 10.00 Overcast OVC060 69.8 60.8 73% 30.19 0.0
16 04:10 N 5 10.00 Overcast BKN060 OVC080 69.8 62.6 78% 30.18 0.0
16 03:50 Calm 10.00 Overcast BKN060 OVC080 69.8 62.6 78% 30.19 0.0
16 03:30 NE 5 10.00 Overcast OVC060 69.8 60.8 73% 30.18 0.0
16 03:10 N 6 10.00 Partly Cloudy SCT060 68 60.8 78% 30.17 0.0
16 02:50 Calm 10.00 Partly Cloudy SCT065 SCT090 69.8 62.6 78% 30.17 0.0
16 02:30 N 3 10.00 Mostly Cloudy BKN060 BKN090 69.8 62.6 78% 30.17 0.0
16 02:10 NE 3 10.00 Overcast BKN060 OVC075 69.8 62.6 78% 30.17 0.0
16 01:50 Calm 10.00 Overcast BKN060 OVC070 69.8 62.6 78% 30.17 0.0
16 01:30 N 5 10.00 Mostly Cloudy SCT065 SCT075 BKN085 68 62.6 83% 30.17 0.0
16 01:10 N 3 10.00 Fair CLR 69.8 62.6 78% 30.17 0.0
16 00:50 NE 6 10.00 Fair CLR 69.8 62.6 78% 30.16 0.0
16 00:30 N 5 10.00 Partly Cloudy SCT060 69.8 62.6 78% 30.17 0.0
16 00:10 N 5 10.00 Mostly Cloudy BKN060 71.6 64.4 78% 30.17 0.0
15 23:50 N 5 10.00 Fair CLR 71.6 62.6 73% 30.16 0.0
15 23:30 N 3 10.00 Fair CLR 71.6 64.4 78% 30.16 0.0
15 22:50 N 3 10.00 Partly Cloudy SCT060 SCT075 73.4 64.4 74% 30.15 0.0
15 22:30 NE 5 10.00 Mostly Cloudy BKN060 BKN075 75.2 64.4 69% 77 30.15 0.0
15 22:10 Calm 10.00 Overcast BKN060 OVC075 77 62.6 61% 79 30.15 0.0
15 21:50 NE 3 10.00 Overcast OVC060 77 62.6 61% 79 30.14 0.0
15 21:30 Calm 10.00 Overcast SCT060 BKN070 OVC100 77 64.4 65% 79 30.13 0.0
15 21:10 Calm 10.00 Overcast SCT060 BKN070 OVC080 78.8 62.6 58% 80 30.12 0.0
15 20:50 Calm 10.00 Mostly Cloudy BKN070 78.8 62.6 58% 80 30.12 0.0
15 20:30 Calm 10.00 Mostly Cloudy BKN070 BKN090 78.8 62.6 58% 80 30.11 0.0
15 20:10 E 3 10.00 Mostly Cloudy SCT060 SCT075 BKN090 78.8 62.6 58% 80 30.1 0.0
15 19:50 E 3 10.00 Mostly Cloudy SCT060 BKN075 BKN100 80.6 64.4 58% 82 30.1 0.0
15 19:30 Calm 10.00 Mostly Cloudy BKN070 BKN090 82.4 62.6 51% 83 30.1 0.0
15 19:10 Calm 10.00 Mostly Cloudy SCT060 BKN080 BKN090 82.4 62.6 51% 83 30.09 0.0
15 18:50 Calm 10.00 Overcast BKN060 BKN080 OVC085 82.4 62.6 51% 83 30.09 0.0
15 18:30 SE 5 10.00 Mostly Cloudy BKN060 BKN080 84.2 62.6 48% 85 30.09 0.0
15 18:10 Calm 10.00 Fair CLR 86 60.8 43% 86 30.09 0.0
15 17:50 E 3 10.00 Fair CLR 86 60.8 43% 86 30.09 0.0
15 17:30 E 3 10.00 Partly Cloudy SCT090 86 62.6 46% 87 30.09 0.0
15 17:10 E 5 10.00 Partly Cloudy SCT075 SCT090 84.2 62.6 48% 85 30.1 0.0
15 16:50 NE 3 10.00 Mostly Cloudy BKN065 BKN090 84.2 62.6 48% 85 30.1 0.0
15 16:30 NE 7 10.00 Overcast SCT065 OVC080 87.8 62.6 43% 88 30.1 0.0
15 16:05 S 3 10.00 Partly Cloudy SCT065 SCT075 SCT090 87.8 62.6 43% 88 30.1 0.0
15 15:50 Calm 10.00 Partly Cloudy SCT060 SCT085 86 60.8 43% 86 30.1 0.0
15 15:30 E 5 10.00 Partly Cloudy SCT070 SCT085 84.2 60.8 45% 84 30.1 0.0
15 15:10 Calm 10.00 Partly Cloudy SCT065 86 60.8 43% 86 30.11 0.0
15 14:50 E 5 10.00 Partly Cloudy SCT050 86 62.6 46% 87 30.1 0.0
15 14:30 E 3 10.00 Mostly Cloudy BKN050 84.2 62.6 48% 85 30.1 0.0
15 14:10 SE 3 10.00 Partly Cloudy SCT048 84.2 60.8 45% 84 30.1 0.0
15 13:50 SE 7 10.00 Mostly Cloudy BKN050 82.4 62.6 51% 83 30.11 0.0
15 13:30 NE 3 10.00 Mostly Cloudy BKN050 82.4 62.6 51% 83 30.12 0.0
15 13:10 Calm 10.00 Mostly Cloudy BKN048 82.4 62.6 51% 83 30.12 0.0
15 12:50 NE 3 10.00 Mostly Cloudy SCT046 BKN060 82.4 62.6 51% 83 30.13 0.0
15 12:30 SE 5 10.00 Partly Cloudy SCT046 SCT060 82.4 62.6 51% 83 30.13 0.0
15 12:10 NE 6 10.00 Partly Cloudy SCT048 82.4 62.6 51% 83 30.14 0.0
15 11:50 NE 3 10.00 Fair CLR 82.4 62.6 51% 83 30.14 0.0
15 11:30 SE 3 10.00 Fair CLR 82.4 62.6 51% 83 30.14 0.0
15 11:10 E 7 10.00 Partly Cloudy SCT042 SCT050 82.4 62.6 51% 83 30.13 0.0
15 10:50 N 8 10.00 Partly Cloudy SCT041 78.8 62.6 58% 80 30.13 0.0
15 10:30 N 6 10.00 Fair CLR 80.6 62.6 54% 82 30.12 0.0
15 10:10 NE 8 10.00 Fair CLR 80.6 62.6 54% 82 30.12 0.0
15 09:50 NE 6 10.00 Fair CLR 78.8 62.6 58% 80 30.12 0.0
15 09:30 N 7 10.00 Fair CLR 78.8 62.6 58% 80 30.12 0.0
15 09:10 Calm 10.00 Fair CLR 77 66.2 69% 79 30.12 0.0
15 08:50 Calm 10.00 Fair CLR 73.4 64.4 74% 30.12 0.0
15 08:30 Calm 10.00 Partly Cloudy SCT110 73.4 66.2 78% 30.12 0.0
15 08:10 Calm 10.00 Partly Cloudy SCT110 71.6 64.4 78% 30.11 0.0
15 07:50 Calm 10.00 Fair CLR 68 64.4 88% 30.11 0.0
15 07:30 Calm 10.00 Partly Cloudy SCT100 68 64.4 88% 30.1 0.0
15 07:10 Calm 10.00 Mostly Cloudy BKN100 64.4 64.4 100% 30.1 0.0
15 06:50 Calm 7.00 Fair CLR 62.6 62.6 100% 30.09 0.0
15 06:30 Calm 4.00 Fog/Mist CLR 62.6 62.6 100% 30.07 0.0
15 06:10 Calm 10.00 Fair CLR 62.6 62.6 100% 30.06 0.0
15 05:50 Calm 10.00 Fair CLR 62.6 62.6 100% 30.05 0.0
15 05:30 Calm 10.00 Fair CLR 62.6 62.6 100% 30.04 0.0
15 05:10 Calm 10.00 Fair CLR 64.4 62.6 94% 30.04 0.0
15 04:50 Calm 10.00 Fair CLR 64.4 64.4 100% 30.03 0.0
15 04:30 Calm 10.00 Fair CLR 64.4 64.4 100% 30.02 0.0
15 04:10 S 3 10.00 Fair CLR 64.4 62.6 94% 30.02 0.0
15 03:50 Calm 10.00 Fair CLR 68 62.6 83% 30.02 0.0
15 03:30 Calm 10.00 Fair CLR 66.2 64.4 94% 30.03 0.0
15 03:10 Calm 10.00 Fair CLR 64.4 64.4 100% 30.03 0.0
15 02:50 Calm 10.00 Fair CLR 66.2 64.4 94% 30.02 0.0
15 02:30 Calm 10.00 Partly Cloudy SCT100 68 64.4 88% 30.02 0.0
15 02:10 Calm 10.00 Partly Cloudy SCT100 68 64.4 88% 30.02 0.0
15 01:50 Calm 10.00 Mostly Cloudy BKN100 68 64.4 88% 30.02 0.0
15 01:30 Calm 10.00 Mostly Cloudy BKN100 68 64.4 88% 30.02 0.0
15 01:10 Calm 10.00 Fair CLR 68 64.4 88% 30.02 0.0
15 00:50 NE 3 10.00 Fair CLR 69.8 64.4 83% 30.02 0.0
15 00:30 Calm 10.00 Fair CLR 69.8 64.4 83% 30.02 0.0
15 00:10 Calm 10.00 Partly Cloudy SCT090 SCT120 69.8 66.2 88% 30.02 0.0
14 23:50 Calm 10.00 Partly Cloudy SCT090 SCT120 69.8 66.2 88% 30.02 0.0
14 23:30 Calm 10.00 Fair CLR 69.8 66.2 88% 30.02 0.0
14 23:10 Calm 10.00 Partly Cloudy SCT100 71.6 66.2 83% 30.02 0.0
14 22:50 Calm 10.00 Mostly Cloudy BKN100 73.4 64.4 74% 30.02 0.0
14 22:30 Calm 10.00 Overcast OVC100 73.4 66.2 78% 30.01 0.0
14 22:10 Calm 10.00 Partly Cloudy SCT100 73.4 66.2 78% 30.01 0.0
14 21:50 NW 5 10.00 Fair CLR 73.4 64.4 74% 30 0.0
14 21:30 Calm 10.00 Fair CLR 73.4 64.4 74% 30 0.0
14 21:10 Calm 10.00 Fair CLR 77 64.4 65% 79 29.99 0.0
14 20:50 Calm 10.00 Fair CLR 78.8 64.4 61% 81 29.98 0.0
14 20:30 Calm 10.00 Fair CLR 78.8 64.4 61% 81 29.98 0.0
14 20:10 Calm 10.00 Fair CLR 82.4 66.2 58% 85 29.98 0.0
14 19:50 Calm 10.00 Fair CLR 84.2 68 58% 87 29.97 0.0
14 19:30 Calm 10.00 Fair CLR 84.2 64.4 51% 86 29.97 0.0
14 19:10 Calm 10.00 Fair CLR 86 62.6 46% 87 29.97 0.0
14 18:50 Calm 10.00 Fair CLR 86 62.6 46% 87 29.97 0.0
14 18:30 Calm 10.00 Fair CLR 86 62.6 46% 87 29.97 0.0
14 18:10 NW 5 10.00 Fair CLR 86 60.8 43% 86 29.97 0.0
14 17:50 W 3 10.00 Fair CLR 86 60.8 43% 86 29.97 0.0
14 17:30 W 3 10.00 Fair CLR 87.8 60.8 40% 88 29.97 0.0
14 17:10 W 5 10.00 Partly Cloudy SCT120 86 60.8 43% 86 29.98 0.0
14 16:50 NW 3 10.00 Partly Cloudy SCT120 86 59 40% 85 29.98 0.0
14 16:30 N 5 10.00 Partly Cloudy SCT070 87.8 59 38% 87 29.99 0.0
14 16:10 N 7 10.00 Partly Cloudy SCT075 SCT080 SCT120 86 59 40% 85 29.99 0.0
14 15:50 NW 6 10.00 Partly Cloudy SCT075 SCT120 89.6 59 36% 89 29.99 0.0
14 15:30 W 5 10.00 Partly Cloudy SCT065 89.6 59 36% 89 29.99 0.0
14 15:10 N 3 10.00 Partly Cloudy SCT065 87.8 59 38% 87 29.99 0.0
14 14:50 Calm 10.00 Mostly Cloudy BKN075 BKN095 86 60.8 43% 86 30 0.0
14 14:30 E 3 10.00 Mostly Cloudy BKN060 BKN075 BKN095 87.8 60.8 40% 88 30 0.0
14 14:10 N 3 7.00 Overcast BKN055 BKN070 OVC085 86 62.6 46% 87 30 0.0
14 13:50 Calm 10.00 Mostly Cloudy SCT055 BKN075 BKN090 86 62.6 46% 87 30 0.0
14 13:30 W 3 10.00 Mostly Cloudy BKN065 BKN100 87.8 64.4 46% 89 30.01 0.0
14 13:10 Calm 10.00 Partly Cloudy SCT065 87.8 62.6 43% 88 30.02 0.0
14 12:50 N 3 10.00 Partly Cloudy SCT049 86 64.4 49% 87 30.03 0.0
14 12:30 Calm 10.00 Fair CLR 86 62.6 46% 87 30.03 0.0
14 12:10 Calm 10.00 Fair CLR 86 64.4 49% 87 30.03 0.0
14 11:50 S 6 10.00 Fair CLR 84.2 64.4 51% 86 30.04 0.0
14 11:30 Calm 10.00 Fair CLR 82.4 64.4 55% 84 30.05 0.0
14 11:10 S 3 10.00 Fair CLR 82.4 64.4 55% 84 30.04 0.0
14 10:50 S 5 10.00 Fair CLR 82.4 66.2 58% 85 30.04 0.0
14 10:30 Calm 10.00 Fair CLR 80.6 66.2 62% 83 30.05 0.0
14 10:10 SW 3 10.00 Fair CLR 78.8 64.4 61% 81 30.05 0.0
14 09:50 Calm 10.00 Fair CLR 77 64.4 65% 79 30.06 0.0
14 09:30 Calm 10.00 Fair CLR 77 64.4 65% 79 30.06 0.0
14 09:10 SW 3 10.00 Fair CLR 73.4 64.4 74% 30.06 0.0
14 08:50 Calm 10.00 Fair CLR 71.6 62.6 73% 30.06 0.0
14 08:30 Calm 10.00 Fair CLR 69.8 62.6 78% 30.06 0.0
14 08:10 Calm 10.00 Fair CLR 68 62.6 83% 30.06 0.0
14 07:50 SW 3 10.00 Fair CLR 66.2 62.6 88% 30.07 0.0
14 07:30 Calm 10.00 Fair CLR 64.4 62.6 94% 30.06 0.0
14 07:10 Calm 10.00 Partly Cloudy SCT003 62.6 62.6 100% 30.06 0.0
14 06:50 Calm 10.00 Fair CLR 62.6 62.6 100% 30.05 0.0
14 06:30 Calm 7.00 Fair CLR 60.8 60.8 100% 30.05 0.0
14 06:10 Calm 5.00 Fog/Mist CLR 60.8 60.8 100% 30.04 0.0
14 05:50 Calm 10.00 Fair CLR 60.8 60.8 100% 30.04 0.0
14 05:30 Calm 10.00 Fair CLR 62.6 62.6 100% 30.04 0.0
14 05:10 Calm 10.00 Fair CLR 62.6 62.6 100% 30.04 0.0
14 04:50 Calm 7.00 Fair CLR 62.6 62.6 100% 30.05 0.0
14 04:30 Calm 10.00 Fair CLR 62.6 62.6 100% 30.04 0.0
14 04:10 Calm 10.00 Fair CLR 64.4 62.6 94% 30.05 0.0
14 03:50 Calm 10.00 Fair CLR 64.4 62.6 94% 30.05 0.0
14 03:30 Calm 10.00 Fair CLR 64.4 64.4 100% 30.05 0.0
14 03:10 Calm 10.00 Fair CLR 62.6 62.6 100% 30.05 0.0
14 02:50 Calm 10.00 Fair CLR 64.4 62.6 94% 30.06 0.0
14 02:30 Calm 10.00 Fair CLR 64.4 62.6 94% 30.06 0.0
14 02:10 Calm 10.00 Fair CLR 64.4 62.6 94% 30.06 0.0
14 01:50 Calm 10.00 Fair CLR 68 62.6 83% 30.06 0.0
14 01:30 Calm 10.00 Fair CLR 68 62.6 83% 30.07 0.0
14 01:10 Calm 10.00 Fair CLR 68 62.6 83% 30.06 0.0
14 00:50 N 5 10.00 Partly Cloudy SCT060 69.8 64.4 83% 30.07 0.0
14 00:30 Calm 10.00 Mostly Cloudy BKN060 69.8 64.4 83% 30.07 0.0
14 00:10 Calm 10.00 Partly Cloudy SCT060 SCT070 69.8 64.4 83% 30.08 0.0
13 23:50 Calm 10.00 Mostly Cloudy BKN060 BKN070 71.6 64.4 78% 30.08 0.0
13 23:30 N 3 10.00 Overcast OVC060 71.6 62.6 73% 30.08 0.0
13 23:10 Calm 10.00 Overcast OVC060 71.6 64.4 78% 30.08 0.0
13 22:50 Calm 10.00 Overcast OVC060 73.4 62.6 69% 30.08 0.0
13 22:30 Calm 10.00 Overcast BKN060 BKN070 OVC090 73.4 62.6 69% 30.07 0.0
13 22:10 Calm 10.00 Overcast SCT060 BKN070 OVC090 73.4 62.6 69% 30.07 0.0
13 21:50 Calm 10.00 Overcast BKN060 BKN070 OVC080 73.4 62.6 69% 30.06 0.0
13 21:30 Calm 10.00 Overcast SCT060 BKN070 OVC100 73.4 62.6 69% 30.06 0.0
13 21:10 Calm 10.00 Overcast SCT060 OVC070 75.2 62.6 65% 77 30.06 0.0
13 20:50 Calm 10.00 Overcast BKN070 OVC095 77 64.4 65% 79 30.05 0.0
13 20:30 Calm 10.00 Overcast SCT060 OVC095 77 64.4 65% 79 30.05 0.0
13 20:10 Calm 10.00 Overcast BKN060 BKN075 OVC085 78.8 62.6 58% 80 30.06 0.0
13 19:50 Calm 10.00 Mostly Cloudy BKN060 BKN085 BKN100 78.8 62.6 58% 80 30.06 0.0
13 19:30 S 3 10.00 Mostly Cloudy SCT060 BKN095 78.8 62.6 58% 80 30.06 0.0
13 19:10 S 5 10.00 Overcast BKN060 OVC095 80.6 62.6 54% 82 30.06 0.0
13 18:50 S 5 10.00 Mostly Cloudy BKN060 BKN070 BKN095 80.6 62.6 54% 82 30.06 0.0
13 18:30 S 6 10.00 Mostly Cloudy BKN060 82.4 62.6 51% 83 30.05 0.0
13 18:10 S 6 10.00 Partly Cloudy SCT065 SCT070 SCT110 82.4 64.4 55% 84 30.05 0.0
13 17:50 SE 3 10.00 Mostly Cloudy BKN075 82.4 62.6 51% 83 30.05 0.0
Date Time (edt) Wind (mph) Vis. (mi.) Weather Sky Cond. Air Dwpt Max. Min. Relative Humidity Wind Chill (°F) Heat Index (°F) altimeter (in) sea level (mb) 1 hr 3 hr 6 hr
6 hour
Temperature (ºF) Pressure Precipitation (in)